Regional Weather Roundup
Issued by NWS Upton, NY

Current Version | Previous Version | Graphics & Text | Print | Product List | Glossary Off
Versions: 1 2 3 4 5 6 7 8 9 10 11 12 13 14 15 16 17 18 19 20 21 22 23 24 25 26 27 28 29 30 31 32 33 34 35 36 37 38 39 40 41 42 43 44 45 46 47 48 49 50

000
ASUS41 KOKX 021704
RWROKX

REGIONAL WEATHER ROUNDUP
NATIONAL WEATHER SERVICE NEW YORK NY
100 PM EDT MON MAY 02 2016

NOTE: "FAIR" INDICATES FEW OR NO CLOUDS BELOW 12,000 FEET WITH NO
SIGNIFICANT WEATHER AND/OR OBSTRUCTIONS TO VISIBILITY.

NYZ071-072-176-178-NJZ106-104-021800-
NEW YORK CITY METRO AREA


CITY           SKY/WX    TMP DP  RH WIND       PRES   REMARKS
CENTRAL PARK   CLOUDY    53  48  83 CALM      29.97F
LAGUARDIA APRT CLOUDY    54  47  77 S6        29.94F
KENNEDY INTL   CLOUDY    52  49  89 S8        29.95F
NEWARK/LIBERTY CLOUDY    57  49  74 CALM      29.95F
BRNX BOT. GARD   N/A     52  46  82 SE6       29.97R
TETERBORO      CLOUDY    52  47  83 SW8       29.94F FOG
$$

NYZ177-179-078>081-021800-
LONG ISLAND NEW YORK

CITY           SKY/WX    TMP DP  RH WIND       PRES   REMARKS
FARMINGDALE    CLOUDY    53  49  86 S6        29.94F
ISLIP          CLOUDY    53  48  83 S6        29.94F
SHIRLEY        CLOUDY    55  49  80 S8        29.95S
RIVERHEAD        N/A     50  48  93 CALM      29.94F
WESTHAMPTON    CLOUDY    50  48  93 SE6       29.97R
EAST HAMPTON   CLOUDY    55  50  83 E7        29.90F
MONTAUK POINT    N/A     52  48  86 N8        29.94F
$$

NYZ052-065-067-021800-
HUDSON VALLEY

CITY           SKY/WX    TMP DP  RH WIND       PRES   REMARKS
WHITE PLAINS     N/A     49  48  97 VRB3      29.94S FOG
NEWBURGH       LGT RAIN  48  48 100 VRB6      29.94  FOG
MONTGOMERY     CLOUDY    49  47  93 SW6       29.93S FOG
POUGHKEEPSIE   CLOUDY    50  46  86 W5        29.93R FOG
ALBANY         DRIZZLE   48  45  89 S9        29.91S
$$

NJZ001-105-106-008-010-013-015-019>022-104-021800-
NEW JERSEY

CITY           SKY/WX    TMP DP  RH WIND       PRES   REMARKS
NEWARK/LIBERTY CLOUDY    57  49  74 CALM      29.95F
TETERBORO      CLOUDY    52  47  83 SW8       29.94F FOG
CALDWELL       CLOUDY    51  48  89 W3        29.96R FOG
MORRISTOWN     LGT RAIN  50  50 100 W5        29.96S FOG
SOMERVILLE     CLOUDY    51  49  92 CALM      29.94S FOG
SUSSEX         CLOUDY    51  47  86 SW7       29.93F
ANDOVER          N/A     50  48  93 CALM      29.93F
TRENTON        CLOUDY    52  49  89 S5        29.95S
MILLVILLE      CLOUDY    59  56  89 SE5       29.93F
ATLANTIC CITY  CLOUDY    56  53  90 SE5       29.94F
WRIGHTSTOWN    LGT RAIN  54  52  94 E3        29.92F
TOMS RIVER     CLOUDY    54  48  82 S5        29.95F
BELMAR         CLOUDY    54  50  86 SE6       29.95F
$$

PAZ047>061-062-071-021800-
EASTERN PENNSYLVANIA

CITY           SKY/WX    TMP DP  RH WIND       PRES   REMARKS
PHILADELPHIA   CLOUDY    56  51  84 CALM      29.95F FOG
ALLENTOWN      CLOUDY    53  49  86 SE6       29.93F FOG
SCRANTON       CLOUDY    55  49  80 W8        29.89S
$$

CTZ002-004>006-009-010-012-RIZ004-006-007-MAZ004-011-015-021800-
SOUTHERN NEW ENGLAND
 IN CT

CITY           SKY/WX    TMP DP  RH WIND       PRES   REMARKS
BRADLEY INTL   CLOUDY    48  44  86 CALM      29.93S
HARTFORD       CLOUDY    50  46  86 CALM      29.93F
DANBURY        CLOUDY    50  46  86 S5        29.94F
WTRBRY/OXFORD  CLOUDY    48  45  87 CALM      29.94F FOG
BRIDGEPORT     CLOUDY    50  47  89 SE5       29.94F
MERIDEN        CLOUDY    50  45  83 CALM      29.93F
NEW HAVEN      CLOUDY    51  49  92 CALM      29.94F FOG
CHESTER        CLOUDY    50  48  93 N5        29.93F FOG
GROTON         CLOUDY    51  51 100 CALM      29.94F FOG
WILLIMANTIC    CLOUDY    52  47  83 NE3       29.94F

 IN RI

CITY           SKY/WX    TMP DP  RH WIND       PRES   REMARKS
PROVIDENCE     CLOUDY    52  50  93 N5        29.95F
BLOCK ISLAND   CLOUDY    52  51  97 NE5       29.93  FOG
WESTERLY       CLOUDY    53  50  89 CALM      29.93F FOG

 IN MA

CITY           SKY/WX    TMP DP  RH WIND       PRES   REMARKS
BOSTON         HVY RAIN  47  46  97 NE7       29.98R VSB 1
WORCESTER      LGT RAIN  45  45 100 E3        29.93F FOG
WESTFIELD      CLOUDY    48  44  86 CALM      29.92F
PROVINCETOWN   CLOUDY    50  49  96 E13G18    29.92F FOG
NANTUCKET      CLOUDY    54  49  83 SE13      29.90F HAZE
$$

ANZ330-335-338-340-345-350-353-355-021800-
COASTAL MARINE OBSERVATIONS


STATION/POSITION TIME  SKY/WX   TEMP    WIND        PRES    VSBY  WAVE
                                AIR SEA DIR/SP/G                  HT/PER
                 (UTC)          (F)     (DEG/KT/KT) (MB)    (MI)  (FT/S)
NY HARB ENTRANCE 1550            49 51  150/  6/  8 1014.3          4/10
20S FIRE ISLAND  1550            47 49  110/ 10/ 12 1013.6          4/ 9
GREAT SOUTH BAY  1600            50 56  120/  8/ 10   N/A
23 SSW MONTAUK P 1650            47 48  130/  4/  6 1013.1          4/ 9
15 E BARNEGAT LI 1622               51                N/A           5/10
HUDSON CANYON    1550            49 49              1014.5          5/11
KINGS POINT      1600            51 53              1014.1
EXECUTION ROCKS  NOT AVBL
CENTRAL LI SOUND 1600            48     350/  6/  6   N/A           0
EASTERN LI SOUND 1600            49 48  250/ 12/ 16   N/A
ROBBINS REEF     1600            49     160/ 10/ 11 1013.6
$$


>>>>>>>>>>>>>>>>>>>>>>>>>>>> KEY <<<<<<<<<<<<<<<<<<<<<<<<<<<
>                                                          <
>     SKY/WX - SKY CONDITION/PRESENT WEATHER               <
>     TMP    - TEMPERATURE IN FAHRENHEIT                   <
>     DP     - DEWPOINT IN FAHRENHEIT                      <
>     RH     - RELATIVE HUMIDITY IN PERCENT                <
>     WIND   - DIRECTION AND SPEED IN MPH                  <
>     PRES   - MEAN SEA LEVEL PRESSURE IN INCHES OF HG     <
>     WCI    - WIND CHILL INDEX                            <
>     VSB    - VISIBILITY IN MILES                         <
>     HX     - HEAT INDEX                                  <
>     TC     - TEMPERATURE IN CELSIUS                      <
>     VRB    - VARIABLE WIND DIRECTION                     <
>                                                          <
>>>>>>>>>>>>>>>>>>>>>>>>>>>> KEY <<<<<<<<<<<<<<<<<<<<<<<<<<<





USA.gov is the U.S. government's official web portal to all federal, state and local government web resources and services.